| time (UTC) | temp C | wind direction | speed KPH | gust KPH | rain 1hr cm | rain 24hr cm | rain mn cm | humidity % | barometer mb |
| 20260505140317 | 13 | 81 | 0.0 | 9.7 | 0.00 | 0.28 | 0.28 | 87 | 979.1 |
| 20260505130240 | 13 | 23 | 4.8 | 9.7 | 0.00 | 0.28 | 0.28 | 89 | 978.6 |
| 20260505124731 | 13 | 339 | 3.2 | 8.0 | 0.00 | 0.28 | 0.28 | 90 | 978.7 |
| 20260505124228 | 13 | 32 | 3.2 | 14.5 | 0.00 | 0.28 | 0.28 | 90 | 978.7 |
| 20260505123723 | 13 | 30 | 4.8 | 12.9 | 0.00 | 0.28 | 0.28 | 90 | 978.7 |
| 20260505123220 | 13 | 348 | 3.2 | 8.0 | 0.00 | 0.28 | 0.28 | 91 | 978.5 |
| 20260505122717 | 13 | 10 | 1.6 | 12.9 | 0.00 | 0.28 | 0.28 | 90 | 978.3 |
| 20260505122214 | 13 | 87 | 1.6 | 14.5 | 0.00 | 0.28 | 0.28 | 91 | 977.9 |
| 20260505121710 | 13 | 47 | 4.8 | 14.5 | 0.00 | 0.28 | 0.28 | 91 | 978.1 |
| 20260505121207 | 13 | 95 | 6.4 | 9.7 | 0.00 | 0.28 | 0.28 | 93 | 977.8 |
| 20260505120703 | 14 | 48 | 0.0 | 12.9 | 0.00 | 0.28 | 0.28 | 93 | 978.1 |
| 20260505120159 | 14 | 7 | 4.8 | 9.7 | 0.00 | 0.28 | 0.28 | 93 | 978.3 |
| 20260505115653 | 14 | 24 | 3.2 | 8.0 | 0.00 | 0.28 | 0.28 | 93 | 978.2 |
| 20260505115151 | 14 | 354 | 4.8 | 8.0 | 0.00 | 0.28 | 0.28 | 94 | 978.0 |
| 20260505114648 | 14 | 30 | 3.2 | 8.0 | 0.00 | 0.28 | 0.28 | 95 | 978.2 |
| 20260505114144 | 14 | 87 | 3.2 | 6.4 | 0.00 | 0.28 | 0.28 | 94 | 978.1 |
| 20260505113641 | 14 | 65 | 0.0 | 4.8 | 0.00 | 0.28 | 0.28 | 94 | 978.1 |
| 20260505113137 | 15 | 73 | 3.2 | 6.4 | 0.00 | 0.28 | 0.28 | 95 | 977.9 |
| 20260505112633 | 15 | 6 | 1.6 | 9.7 | 0.00 | 0.28 | 0.28 | 95 | 977.6 |
| 20260505112132 | 15 | 16 | 4.8 | 8.0 | 0.13 | 0.28 | 0.28 | 94 | 977.9 |
| 20260505111625 | 15 | 347 | 4.8 | 14.5 | 0.05 | 0.25 | 0.25 | 94 | 977.2 |
| 20260505111121 | 15 | 10 | 8.0 | 12.9 | 0.05 | 0.25 | 0.25 | 94 | 977.3 |
| 20260505110618 | 15 | 44 | 3.2 | 6.4 | 0.05 | 0.25 | 0.25 | 94 | 978.0 |
| 20260505110115 | 15 | 66 | 3.2 | 6.4 | 0.00 | 0.23 | 0.23 | 94 | 978.3 |
| 20260505102051 | 15 | 355 | 3.2 | 4.8 | 0.05 | 0.23 | 0.23 | 93 | 977.8 |
| 20260505101549 | 15 | 337 | 6.4 | 11.3 | 0.05 | 0.23 | 0.23 | 93 | 977.5 |
| 20260505101045 | 15 | 336 | 8.0 | 12.9 | 0.05 | 0.23 | 0.23 | 93 | 977.5 |
| 20260505100542 | 15 | 344 | 3.2 | 14.5 | 0.00 | 0.23 | 0.23 | 94 | 977.6 |
| 20260505100039 | 15 | 359 | 3.2 | 4.8 | 0.00 | 0.23 | 0.23 | 94 | 977.4 |
| 20260505095535 | 15 | 331 | 3.2 | 3.2 | 0.00 | 0.23 | 0.23 | 93 | 976.8 |
| 20260505095031 | 15 | 21 | 1.6 | 3.2 | 0.05 | 0.23 | 0.23 | 92 | 976.8 |
| 20260505094528 | 15 | 141 | 0.0 | 0.0 | 0.05 | 0.23 | 0.23 | 91 | 976.7 |
| 20260505094024 | 16 | 202 | 0.0 | 3.2 | 0.00 | 0.20 | 0.20 | 90 | 976.7 |
| 20260505093521 | 15 | 259 | 3.2 | 3.2 | 0.00 | 0.20 | 0.20 | 90 | 976.8 |
| 20260505093018 | 16 | 54 | 0.0 | 4.8 | 0.00 | 0.20 | 0.20 | 87 | 976.6 |
| 20260505092516 | 16 | 28 | 0.0 | 8.0 | 0.00 | 0.20 | 0.20 | 85 | 976.5 |
| 20260505092014 | 16 | 252 | 1.6 | 9.7 | 0.00 | 0.20 | 0.20 | 86 | 976.3 |
| 20260505091511 | 15 | 176 | 3.2 | 9.7 | 0.00 | 0.20 | 0.20 | 90 | 976.5 |
| 20260505091009 | 15 | 179 | 3.2 | 12.9 | 0.00 | 0.20 | 0.20 | 93 | 975.6 |
| 20260505090506 | 15 | 186 | 4.8 | 19.3 | 0.05 | 0.20 | 0.20 | 95 | 974.9 |
| 20260505090004 | 15 | 125 | 8.0 | 16.1 | 0.00 | 0.20 | 0.20 | 95 | 974.8 |
| 20260505085502 | 15 | 169 | 4.8 | 16.1 | 0.05 | 0.20 | 0.20 | 96 | 975.0 |
| 20260505084959 | 15 | 192 | 4.8 | 17.7 | 0.18 | 0.20 | 0.20 | 96 | 975.6 |
| 20260505084458 | 15 | 187 | 3.2 | 19.3 | 0.23 | 0.18 | 0.18 | 96 | 975.9 |
| 20260505083955 | 16 | 161 | 3.2 | 8.0 | 0.23 | 0.18 | 0.18 | 96 | 977.0 |
| 20260505083452 | 16 | 97 | 3.2 | 4.8 | 0.18 | 0.15 | 0.15 | 95 | 977.7 |
| 20260505082948 | 16 | 46 | 3.2 | 9.7 | 0.13 | 0.13 | 0.13 | 94 | 977.7 |
| 20260505082444 | 16 | 322 | 6.4 | 12.9 | 0.13 | 0.13 | 0.13 | 94 | 977.6 |
| 20260505081942 | 16 | 341 | 3.2 | 8.0 | 0.05 | 0.10 | 0.10 | 94 | 977.6 |
| 20260505081438 | 16 | 224 | 8.0 | 19.3 | 0.05 | 0.10 | 0.10 | 94 | 977.7 |
| 20260505080935 | 16 | 198 | 4.8 | 12.9 | 0.13 | 0.10 | 0.10 | 93 | 977.6 |
| 20260505080431 | 16 | 218 | 4.8 | 12.9 | 0.18 | 0.08 | 0.08 | 92 | 977.4 |
| 20260505075926 | 16 | 241 | 6.4 | 17.7 | 0.18 | 0.05 | 0.05 | 90 | 977.1 |
| 20260505075424 | 16 | 223 | 12.9 | 19.3 | 0.23 | 0.05 | 0.05 | 88 | 977.2 |
| 20260505074921 | 17 | 244 | 6.4 | 14.5 | 0.13 | 0.03 | 0.03 | 85 | 977.1 |
| 20260505074418 | 17 | 343 | 4.8 | 11.3 | 0.05 | 0.00 | 0.00 | 83 | 977.2 |
| 20260505073915 | 17 | 209 | 4.8 | 14.5 | 0.00 | 0.00 | 0.00 | 81 | 977.5 |
| 20260505073413 | 17 | 298 | 3.2 | 12.9 | 0.00 | 0.00 | 0.00 | 80 | 977.3 |
| 20260505072910 | 17 | 205 | 3.2 | 8.0 | 0.00 | 0.00 | 0.00 | 79 | 977.3 |
| 20260505072406 | 17 | 131 | 1.6 | 9.7 | 0.00 | 0.00 | 0.00 | 78 | 977.3 |
| 20260505071902 | 18 | 137 | 0.0 | 4.8 | 0.00 | 0.00 | 0.00 | 76 | 977.1 |
| 20260505071358 | 18 | 263 | 3.2 | 6.4 | 0.00 | 0.00 | 0.00 | 76 | 977.3 |
| 20260505070857 | 18 | 235 | 0.0 | 8.0 | 0.00 | 0.00 | 0.00 | 75 | 977.3 |
| 20260505070353 | 18 | 189 | 3.2 | 12.9 | 0.00 | 0.00 | 0.00 | 75 | 977.2 |
| 20260505065848 | 18 | 190 | 0.0 | 14.5 | 0.00 | 0.00 | 0.00 | 75 | 976.8 |
| 20260505065345 | 18 | 191 | 3.2 | 11.3 | 0.00 | 0.00 | 0.00 | 75 | 977.1 |
| 20260505064842 | 18 | 182 | 1.6 | 9.7 | 0.00 | 0.00 | 0.00 | 75 | 977.1 |
| 20260505064339 | 18 | 230 | 4.8 | 6.4 | 0.00 | 0.00 | 0.00 | 75 | 977.1 |
| 20260505063838 | 18 | 186 | 3.2 | 8.0 | 0.00 | 0.00 | 0.00 | 74 | 977.4 |
| 20260505063333 | 18 | 190 | 3.2 | 8.0 | 0.00 | 0.00 | 0.00 | 75 | 977.5 |
| 20260505062830 | 18 | 178 | 3.2 | 6.4 | 0.00 | 0.00 | 0.00 | 74 | 977.7 |
| 20260505062327 | 18 | 161 | 4.8 | 9.7 | 0.00 | 0.00 | 0.00 | 75 | 977.8 |
| 20260505061824 | 18 | 209 | 3.2 | 6.4 | 0.00 | 0.00 | 0.00 | 75 | 977.7 |
| 20260505061322 | 18 | 186 | 3.2 | 8.0 | 0.00 | 0.00 | 0.00 | 74 | 977.8 |
| 20260505060820 | 18 | 159 | 1.6 | 6.4 | 0.00 | 0.00 | 0.00 | 75 | 977.9 |
| 20260505060316 | 18 | 226 | 3.2 | 6.4 | 0.00 | 0.00 | 0.00 | 75 | 977.8 |
| 20260505055812 | 18 | 106 | 1.6 | 6.4 | 0.00 | 0.00 | 0.00 | 75 | 977.8 |
| 20260505055308 | 18 | 179 | 1.6 | 8.0 | 0.00 | 0.00 | 0.00 | 74 | 977.4 |
| 20260505054806 | 18 | 129 | 3.2 | 6.4 | 0.00 | 0.00 | 0.00 | 74 | 977.7 |
| 20260505054303 | 18 | 186 | 4.8 | 9.7 | 0.00 | 0.00 | 0.00 | 74 | 977.6 |
| 20260505053801 | 18 | 126 | 1.6 | 4.8 | 0.00 | 0.00 | 0.00 | 74 | 977.5 |
| 20260505053258 | 18 | 141 | 1.6 | 11.3 | 0.00 | 0.00 | 0.00 | 74 | 977.5 |
| 20260505052755 | 18 | 117 | 3.2 | 6.4 | 0.00 | 0.00 | 0.00 | 74 | 977.7 |
| 20260505052252 | 18 | 125 | 4.8 | 9.7 | 0.00 | 0.00 | 0.00 | 74 | 977.4 |
| 20260505051748 | 18 | 141 | 6.4 | 11.3 | 0.00 | 0.00 | 0.00 | 74 | 977.5 |
| 20260505051246 | 18 | 131 | 8.0 | 12.9 | 0.00 | 0.00 | 0.00 | 73 | 977.6 |
| 20260505050744 | 18 | 154 | 1.6 | 9.7 | 0.00 | 0.00 | 0.00 | 73 | 977.9 |
| 20260505050243 | 18 | 164 | 1.6 | 8.0 | 0.00 | 0.00 | 0.00 | 73 | 977.6 |
| 20260505041712 | 18 | 149 | 1.6 | 6.4 | 0.00 | 0.00 | 0.00 | 71 | 978.3 |
| 20260505041209 | 18 | 225 | 0.0 | 4.8 | 0.00 | 0.00 | 0.00 | 71 | 978.5 |
| 20260505040707 | 18 | 132 | 1.6 | 4.8 | 0.00 | 0.00 | 0.00 | 70 | 978.4 |
| 20260505040204 | 19 | 139 | 1.6 | 11.3 | 0.00 | 0.00 | 0.00 | 70 | 978.6 |
| 20260505035700 | 19 | 142 | 0.0 | 6.4 | 0.00 | 0.00 | 0.00 | 70 | 978.5 |
| 20260505035156 | 19 | 100 | 0.0 | 4.8 | 0.00 | 0.00 | 0.00 | 70 | 978.6 |
| 20260505034653 | 19 | 193 | 0.0 | 6.4 | 0.00 | 0.00 | 0.00 | 70 | 978.6 |
| 20260505034150 | 19 | 201 | 3.2 | 3.2 | 0.00 | 0.00 | 0.00 | 70 | 978.5 |
| 20260505033646 | 19 | 89 | 0.0 | 3.2 | 0.00 | 0.00 | 0.00 | 69 | 978.6 |
| 20260505033145 | 19 | 91 | 0.0 | 3.2 | 0.00 | 0.00 | 0.00 | 69 | 978.7 |
| 20260505032642 | 19 | 107 | 0.0 | 1.6 | 0.00 | 0.00 | 0.00 | 70 | 978.7 |
| 20260505032133 | 20 | 143 | 0.0 | 4.8 | 0.00 | 0.00 | 0.00 | 69 | 978.5 |
| 20260505031630 | 20 | 217 | 0.0 | 3.2 | 0.00 | 0.00 | 0.00 | 68 | 978.5 |
| 20260505031126 | 20 | 89 | 0.0 | 4.8 | 0.00 | 0.00 | 0.00 | 68 | 978.8 |
| 20260505030624 | 20 | 282 | 0.0 | 4.8 | 0.00 | 0.00 | 0.00 | 68 | 978.6 |
| 20260505030119 | 20 | 222 | 1.6 | 4.8 | 0.00 | 0.00 | 0.00 | 67 | 978.6 |
| 20260505025615 | 20 | 61 | 3.2 | 4.8 | 0.00 | 0.00 | 0.00 | 67 | 978.5 |
| 20260505025114 | 20 | 226 | 6.4 | 8.0 | 0.00 | 0.00 | 0.00 | 66 | 978.6 |
| 20260505024611 | 20 | 199 | 4.8 | 8.0 | 0.00 | 0.00 | 0.00 | 66 | 978.6 |
| 20260505024108 | 20 | 200 | 3.2 | 9.7 | 0.00 | 0.00 | 0.00 | 65 | 978.4 |
| 20260505023606 | 20 | 239 | 0.0 | 4.8 | 0.00 | 0.00 | 0.00 | 66 | 978.6 |
| 20260505023103 | 20 | 148 | 1.6 | 11.3 | 0.00 | 0.00 | 0.00 | 65 | 978.3 |
| 20260505022600 | 20 | 114 | 0.0 | 6.4 | 0.00 | 0.00 | 0.00 | 65 | 978.2 |
| 20260505022057 | 20 | 202 | 0.0 | 6.4 | 0.00 | 0.00 | 0.00 | 65 | 978.2 |
| 20260505021554 | 21 | 149 | 4.8 | 9.7 | 0.00 | 0.00 | 0.00 | 64 | 978.1 |
| 20260505021051 | 21 | 211 | 3.2 | 11.3 | 0.00 | 0.00 | 0.00 | 65 | 977.7 |
| 20260505020550 | 21 | 128 | 3.2 | 4.8 | 0.00 | 0.00 | 0.00 | 65 | 978.0 |
| 20260505020048 | 21 | 185 | 0.0 | 8.0 | 0.00 | 0.00 | 0.00 | 65 | 977.9 |
| 20260505015545 | 21 | 166 | 3.2 | 6.4 | 0.00 | 0.00 | 0.00 | 64 | 977.7 |
| 20260505015041 | 21 | 146 | 0.0 | 3.2 | 0.00 | 0.00 | 0.00 | 64 | 977.8 |
| 20260505014538 | 21 | 177 | 1.6 | 4.8 | 0.00 | 0.00 | 0.00 | 63 | 977.6 |
| 20260505014035 | 21 | 121 | 4.8 | 4.8 | 0.00 | 0.00 | 0.00 | 63 | 977.5 |
| 20260505013532 | 21 | 222 | 1.6 | 4.8 | 0.00 | 0.00 | 0.00 | 62 | 977.6 |
| 20260505013030 | 21 | 145 | 1.6 | 4.8 | 0.00 | 0.00 | 0.00 | 61 | 977.5 |
| 20260505012528 | 21 | 212 | 3.2 | 4.8 | 0.00 | 0.00 | 0.00 | 61 | 977.1 |
| 20260505012025 | 21 | 251 | 1.6 | 4.8 | 0.00 | 0.00 | 0.00 | 61 | 977.2 |
| 20260505011520 | 21 | 115 | 4.8 | 6.4 | 0.00 | 0.00 | 0.00 | 59 | 977.5 |
| 20260505011017 | 21 | 213 | 0.0 | 4.8 | 0.00 | 0.00 | 0.00 | 61 | 977.2 |
| 20260505010512 | 22 | 137 | 0.0 | 4.8 | 0.00 | 0.00 | 0.00 | 59 | 977.4 |
| 20260505010010 | 22 | 248 | 0.0 | 4.8 | 0.00 | 0.00 | 0.00 | 59 | 977.1 |
| 20260505005506 | 22 | 216 | 0.0 | 3.2 | 0.00 | 0.00 | 0.00 | 58 | 977.2 |
| 20260505005004 | 22 | 247 | 4.8 | 8.0 | 0.00 | 0.00 | 0.00 | 57 | 977.1 |
| 20260505004501 | 22 | 195 | 0.0 | 3.2 | 0.00 | 0.00 | 0.00 | 57 | 977.1 |
| 20260505003957 | 22 | 149 | 0.0 | 8.0 | 0.00 | 0.00 | 0.00 | 57 | 977.1 |
| 20260505003455 | 22 | 52 | 3.2 | 6.4 | 0.00 | 0.00 | 0.00 | 56 | 976.9 |
| 20260505002950 | 23 | 230 | 0.0 | 6.4 | 0.00 | 0.00 | 0.00 | 56 | 977.0 |
| 20260505002446 | 23 | 230 | 0.0 | 3.2 | 0.00 | 0.00 | 0.00 | 56 | 977.1 |
| 20260505001945 | 23 | 181 | 0.0 | 4.8 | 0.00 | 0.00 | 0.00 | 54 | 977.1 |
| 20260505001442 | 23 | 192 | 0.0 | 4.8 | 0.00 | 0.00 | 0.00 | 54 | 976.8 |
| 20260505000939 | 23 | 205 | 0.0 | 4.8 | 0.00 | 0.00 | 0.00 | 52 | 976.8 |
| 20260505000437 | 23 | 225 | 1.6 | 4.8 | 0.00 | 0.00 | 0.00 | 52 | 977.0 |
| 20260504235934 | 24 | 254 | 3.2 | 8.0 | 0.00 | 0.00 | 0.00 | 50 | 976.8 |
| 20260504235431 | 24 | 190 | 3.2 | 6.4 | 0.00 | 0.00 | 0.00 | 51 | 976.9 |
| 20260504234927 | 24 | 109 | 1.6 | 9.7 | 0.00 | 0.00 | 0.00 | 49 | 976.7 |
| 20260504234425 | 24 | 234 | 1.6 | 14.5 | 0.00 | 0.00 | 0.00 | 50 | 976.8 |
| 20260504233921 | 25 | 229 | 4.8 | 11.3 | 0.00 | 0.00 | 0.00 | 48 | 976.8 |
| 20260504233417 | 25 | 135 | 1.6 | 4.8 | 0.00 | 0.00 | 0.00 | 49 | 976.8 |
| 20260504232914 | 25 | 209 | 1.6 | 11.3 | 0.00 | 0.00 | 0.00 | 49 | 976.8 |
| 20260504232411 | 25 | 221 | 3.2 | 11.3 | 0.00 | 0.00 | 0.00 | 48 | 976.7 |
| 20260504231908 | 26 | 230 | 1.6 | 8.0 | 0.00 | 0.00 | 0.00 | 48 | 976.7 |
| 20260504231404 | 26 | 204 | 3.2 | 11.3 | 0.00 | 0.00 | 0.00 | 48 | 976.8 |
| 20260504230901 | 26 | 204 | 8.0 | 14.5 | 0.00 | 0.00 | 0.00 | 48 | 976.8 |
| 20260504230358 | 26 | 223 | 1.6 | 16.1 | 0.00 | 0.00 | 0.00 | 46 | 977.0 |
| 20260504225857 | 26 | 282 | 4.8 | 11.3 | 0.00 | 0.00 | 0.00 | 47 | 977.0 |
| 20260504225353 | 26 | 249 | 6.4 | 14.5 | 0.00 | 0.00 | 0.00 | 45 | 976.8 |
| 20260504224851 | 27 | 262 | 11.3 | 19.3 | 0.00 | 0.00 | 0.00 | 45 | 976.9 |
| 20260504224347 | 27 | 238 | 4.8 | 12.9 | 0.00 | 0.00 | 0.00 | 45 | 976.8 |
| 20260504223844 | 27 | 219 | 3.2 | 22.5 | 0.00 | 0.00 | 0.00 | 45 | 976.8 |
| 20260504223339 | 27 | 247 | 4.8 | 14.5 | 0.00 | 0.00 | 0.00 | 45 | 977.0 |
| 20260504222836 | 27 | 183 | 0.0 | 8.0 | 0.00 | 0.00 | 0.00 | 47 | 977.0 |
| 20260504222333 | 26 | 167 | 3.2 | 11.3 | 0.00 | 0.00 | 0.00 | 46 | 976.7 |
| 20260504221832 | 27 | 202 | 4.8 | 24.1 | 0.00 | 0.00 | 0.00 | 46 | 977.0 |
| 20260504221328 | 27 | 179 | 3.2 | 12.9 | 0.00 | 0.00 | 0.00 | 46 | 976.9 |
| 20260504220825 | 27 | 243 | 6.4 | 16.1 | 0.00 | 0.00 | 0.00 | 47 | 976.9 |
| 20260504220322 | 26 | 178 | 0.0 | 14.5 | 0.00 | 0.00 | 0.00 | 47 | 976.9 |
| 20260504215819 | 26 | 227 | 12.9 | 25.7 | 0.00 | 0.00 | 0.00 | 47 | 976.9 |
| 20260504215315 | 26 | 336 | 4.8 | 11.3 | 0.00 | 0.00 | 0.00 | 47 | 977.1 |
| 20260504214811 | 26 | 182 | 4.8 | 11.3 | 0.00 | 0.00 | 0.00 | 47 | 977.1 |
| 20260504214308 | 26 | 138 | 8.0 | 20.9 | 0.00 | 0.00 | 0.00 | 47 | 977.1 |
| 20260504213805 | 26 | 178 | 4.8 | 9.7 | 0.00 | 0.00 | 0.00 | 47 | 976.9 |
| 20260504213301 | 26 | 242 | 3.2 | 14.5 | 0.00 | 0.00 | 0.00 | 49 | 977.1 |
| 20260504212758 | 26 | 224 | 4.8 | 12.9 | 0.00 | 0.00 | 0.00 | 48 | 977.2 |
| 20260504212254 | 26 | 252 | 8.0 | 8.0 | 0.00 | 0.00 | 0.00 | 46 | 977.4 |
| 20260504211752 | 26 | 196 | 4.8 | 17.7 | 0.00 | 0.00 | 0.00 | 46 | 977.3 |
| 20260504211248 | 27 | 240 | 6.4 | 11.3 | 0.00 | 0.00 | 0.00 | 47 | 977.4 |
| 20260504210746 | 27 | 86 | 4.8 | 20.9 | 0.00 | 0.00 | 0.00 | 47 | 977.4 |
| 20260504210243 | 27 | 207 | 6.4 | 20.9 | 0.00 | 0.00 | 0.00 | 46 | 977.5 |
| 20260504205739 | 27 | 242 | 11.3 | 12.9 | 0.00 | 0.00 | 0.00 | 46 | 977.6 |
| 20260504205238 | 27 | 222 | 9.7 | 27.4 | 0.00 | 0.00 | 0.00 | 45 | 977.3 |
| 20260504204735 | 27 | 194 | 0.0 | 12.9 | 0.00 | 0.00 | 0.00 | 46 | 977.7 |
| 20260504204233 | 27 | 257 | 1.6 | 19.3 | 0.00 | 0.00 | 0.00 | 46 | 977.6 |
| 20260504203733 | 27 | 227 | 11.3 | 17.7 | 0.00 | 0.00 | 0.00 | 45 | 977.6 |
| 20260504203230 | 27 | 201 | 4.8 | 20.9 | 0.00 | 0.00 | 0.00 | 45 | 977.6 |
| 20260504202729 | 26 | 216 | 3.2 | 22.5 | 0.00 | 0.00 | 0.00 | 48 | 977.8 |
| 20260504202227 | 27 | 199 | 3.2 | 22.5 | 0.00 | 0.00 | 0.00 | 49 | 977.9 |
| 20260504201724 | 27 | 145 | 1.6 | 11.3 | 0.00 | 0.00 | 0.00 | 47 | 978.0 |
| 20260504201221 | 26 | 209 | 4.8 | 14.5 | 0.00 | 0.00 | 0.00 | 47 | 978.1 |
| 20260504200718 | 27 | 232 | 4.8 | 11.3 | 0.00 | 0.00 | 0.00 | 45 | 978.1 |
| 20260504200214 | 27 | 237 | 6.4 | 22.5 | 0.00 | 0.00 | 0.00 | 46 | 978.1 |
| 20260504195711 | 27 | 121 | 3.2 | 17.7 | 0.00 | 0.00 | 0.00 | 46 | 978.2 |
| 20260504195207 | 27 | 196 | 3.2 | 11.3 | 0.00 | 0.00 | 0.00 | 48 | 978.2 |
| 20260504194704 | 27 | 223 | 4.8 | 12.9 | 0.00 | 0.00 | 0.00 | 46 | 978.1 |
| 20260504194200 | 27 | 113 | 1.6 | 11.3 | 0.00 | 0.00 | 0.00 | 46 | 978.2 |
| 20260504193656 | 26 | 215 | 3.2 | 16.1 | 0.00 | 0.00 | 0.00 | 49 | 978.2 |
| 20260504193154 | 26 | 110 | 4.8 | 20.9 | 0.00 | 0.00 | 0.00 | 48 | 978.4 |
| 20260504192652 | 26 | 123 | 4.8 | 17.7 | 0.00 | 0.00 | 0.00 | 48 | 978.5 |
| 20260504192150 | 26 | 25 | 4.8 | 19.3 | 0.00 | 0.00 | 0.00 | 49 | 978.4 |
| 20260504191648 | 26 | 156 | 4.8 | 16.1 | 0.00 | 0.00 | 0.00 | 49 | 978.5 |
| 20260504191144 | 26 | 142 | 4.8 | 22.5 | 0.00 | 0.00 | 0.00 | 48 | 978.3 |
| 20260504190640 | 26 | 110 | 4.8 | 12.9 | 0.00 | 0.00 | 0.00 | 50 | 978.4 |
| 20260504190137 | 26 | 125 | 8.0 | 24.1 | 0.00 | 0.00 | 0.00 | 47 | 978.5 |
| 20260504185633 | 26 | 233 | 6.4 | 20.9 | 0.00 | 0.00 | 0.00 | 46 | 978.6 |
| 20260504185130 | 26 | 266 | 6.4 | 17.7 | 0.00 | 0.00 | 0.00 | 47 | 978.5 |
| 20260504184626 | 26 | 189 | 3.2 | 20.9 | 0.00 | 0.00 | 0.00 | 46 | 978.5 |
| 20260504184121 | 26 | 233 | 6.4 | 24.1 | 0.00 | 0.00 | 0.00 | 48 | 978.5 |
| 20260504183619 | 26 | 199 | 8.0 | 20.9 | 0.00 | 0.00 | 0.00 | 46 | 978.4 |
| 20260504183116 | 26 | 197 | 3.2 | 20.9 | 0.00 | 0.00 | 0.00 | 47 | 978.5 |
| 20260504182614 | 25 | 241 | 4.8 | 17.7 | 0.00 | 0.00 | 0.00 | 49 | 978.6 |
| 20260504182111 | 26 | 234 | 6.4 | 12.9 | 0.00 | 0.00 | 0.00 | 47 | 978.4 |
| 20260504181608 | 26 | 249 | 8.0 | 14.5 | 0.00 | 0.00 | 0.00 | 48 | 978.6 |
| 20260504181106 | 26 | 260 | 6.4 | 14.5 | 0.00 | 0.00 | 0.00 | 49 | 978.5 |
| 20260504180605 | 26 | 156 | 9.7 | 17.7 | 0.00 | 0.00 | 0.00 | 49 | 978.5 |
| 20260504180103 | 26 | 218 | 6.4 | 14.5 | 0.00 | 0.00 | 0.00 | 47 | 978.8 |
| 20260504175600 | 25 | 234 | 3.2 | 19.3 | 0.00 | 0.00 | 0.00 | 50 | 978.6 |
| 20260504175057 | 25 | 183 | 3.2 | 16.1 | 0.00 | 0.00 | 0.00 | 49 | 978.4 |
| 20260504174555 | 25 | 214 | 8.0 | 17.7 | 0.00 | 0.00 | 0.00 | 49 | 978.8 |
| 20260504174051 | 25 | 235 | 8.0 | 14.5 | 0.00 | 0.00 | 0.00 | 49 | 978.9 |
| 20260504173548 | 25 | 216 | 11.3 | 25.7 | 0.00 | 0.00 | 0.00 | 48 | 978.8 |
| 20260504173046 | 25 | 287 | 8.0 | 25.7 | 0.00 | 0.00 | 0.00 | 48 | 978.9 |
| 20260504172541 | 25 | 236 | 4.8 | 12.9 | 0.00 | 0.00 | 0.00 | 49 | 978.8 |
| 20260504172038 | 25 | 198 | 3.2 | 11.3 | 0.00 | 0.00 | 0.00 | 53 | 979.1 |
| 20260504171535 | 26 | 23 | 1.6 | 9.7 | 0.00 | 0.00 | 0.00 | 50 | 979.1 |
| 20260504171032 | 25 | 148 | 4.8 | 14.5 | 0.00 | 0.00 | 0.00 | 50 | 979.2 |
| 20260504170528 | 24 | 213 | 8.0 | 29.0 | 0.00 | 0.00 | 0.00 | 50 | 979.0 |
| 20260504150912 | 22 | 201 | 12.9 | 25.7 | 0.00 | 0.00 | 0.00 | 51 | 980.2 |
| 20260504150409 | 22 | 229 | 1.6 | 14.5 | 0.00 | 0.00 | 0.00 | 54 | 980.3 |